Temp
4 5 5 4 4 4 4 3 3 3 3 3 3 3 2 3 2 2 1 1 1 1 1 1 0 0 0 -0 -0 -0 -0 -0
4 4 5 5 4 4 4 4 4 4 4 3 3 3 2 2 2 2 2 2 1 1 1 1 1 0 0 -0 -0 -0 -1 -1
5 5 5 5 4 4 4 4 4 4 3 3 3 2 2 2 2 2 2 1 1 1 1 1 0 -0 -1 -0 -1 -1 -1 -1
6 6 6 5 5 5 5 4 4 3 3 3 3 3 2 2 2 2 2 2 1 1 1 0 -0 -1 -1 -1 -2 -2 -2 -2
6 6 6 6 5 5 5 4 4 4 3 3 3 3 2 2 1 2 2 2 1 0 0 -0 -1 -1 -1 -2 -2 -2 -3 -3
6 6 6 5 5 5 4 3 3 3 3 3 3 2 2 1 1 2 2 1 1 0 -0 -1 -1 -1 -2 -2 -3 -4 -4 -3
7 6 6 5 5 5 4 2 4 3 3 3 2 2 2 1 1 2 1 1 0 -0 -1 -1 -1 -3 -3 -3 -3 -4 -4 -5
7 6 6 6 6 5 4 3 2 3 2 2 2 2 2 1 1 2 1 1 -0 -0 -1 -2 -2 -3 -3 -3 -3 -4 -4 -5
7 7 6 6 6 5 4 3 3 3 2 2 2 3 2 2 2 2 1 0 0 -1 -2 -3 -3 -3 -3 -3 -5 -5 -5 -6
7 7 6 6 5 5 4 3 3 3 2 2 3 2 2 2 1 0 0 -1 -1 -2 -3 -3 -3 -4 -4 -5 -6 -6 -6 -6
7 6 6 6 5 4 4 3 3 2 3 3 3 2 2 1 1 0 -1 -2 -2 -3 -3 -3 -4 -5 -5 -6 -6 -6 -6 -7
6 6 6 5 5 5 3 4 3 3 3 3 2 2 1 1 -0 -2 -3 -2 -3 -3 -4 -4 -5 -5 -6 -5 -7 -7 -7 -8
7 6 6 6 5 4 4 3 3 2 2 2 1 0 0 -0 -1 -3 -3 -3 -3 -3 -4 -5 -6 -6 -5 -6 -7 -7 -8 -9
7 6 6 6 5 4 4 3 2 2 2 1 1 0 -0 -1 -2 -3 -3 -4 -4 -4 -5 -6 -6 -6 -6 -7 -8 -8 -9 -10
6 6 6 5 5 3 3 3 2 2 2 1 0 -0 -1 -2 -3 -3 -4 -4 -4 -4 -5 -5 -5 -5 -6 -7 -8 -9 -10 -10
6 5 5 4 4 3 3 2 2 1 1 1 0 -1 -1 -2 -3 -3 -4 -4 -4 -4 -4 -5 -4 -5 -8 -8 -9 -10 -10 -10
5 5 5 4 4 3 3 3 3 2 1 -0 -1 -1 -1 -2 -3 -4 -4 -4 -4 -4 -4 -4 -6 -8 -8 -9 -10 -11 -11 -10
5 4 4 3 3 3 2 2 1 1 1 -0 -1 -1 -2 -2 -3 -3 -4 -4 -4 -4 -4 -6 -8 -8 -9 -9 -11 -11 -11 -11
3 3 3 3 2 2 1 1 0 0 -0 -1 -1 -2 -2 -3 -3 -3 -3 -3 -4 -5 -7 -8 -8 -9 -9 -11 -11 -11 -11 -11
Height
3130 3132 3134 3137 3139 3141 3143 3146 3148 3149 3150 3152 3154 3156 3158 3160 3160 3160 3159 3159 3158 3159 3159 3159 3158 3156 3155 3155 3152 3148 3145 3141
3132 3134 3137 3138 3139 3142 3144 3145 3148 3150 3152 3153 3153 3156 3158 3157 3157 3156 3157 3157 3156 3157 3155 3155 3154 3153 3151 3150 3146 3143 3140 3138
3131 3132 3134 3136 3139 3140 3142 3144 3145 3147 3150 3151 3152 3152 3153 3153 3153 3153 3154 3154 3153 3153 3153 3153 3151 3149 3146 3144 3141 3139 3137 3133
3132 3132 3133 3134 3135 3137 3138 3140 3141 3143 3144 3146 3148 3148 3149 3150 3150 3150 3150 3151 3151 3151 3149 3148 3145 3143 3141 3139 3137 3135 3132 3128
3130 3132 3133 3134 3135 3135 3136 3139 3140 3142 3143 3143 3144 3145 3145 3146 3146 3147 3147 3148 3147 3146 3144 3142 3140 3138 3135 3133 3130 3128 3124 3119
3126 3128 3130 3132 3133 3134 3135 3138 3139 3140 3140 3141 3141 3140 3141 3142 3141 3142 3142 3143 3141 3140 3138 3137 3134 3132 3129 3126 3122 3119 3114 3109
3121 3124 3126 3128 3130 3130 3131 3128 3130 3136 3136 3136 3136 3135 3136 3136 3136 3138 3137 3137 3135 3133 3132 3130 3127 3124 3121 3118 3114 3110 3105 3100
3115 3118 3121 3124 3125 3126 3125 3123 3126 3130 3131 3130 3130 3129 3129 3130 3131 3131 3130 3129 3129 3128 3126 3123 3121 3117 3111 3109 3104 3099 3095 3091
3110 3113 3116 3119 3120 3121 3121 3122 3123 3125 3126 3125 3125 3123 3123 3124 3125 3125 3125 3124 3123 3120 3118 3116 3112 3108 3104 3100 3095 3090 3085 3081
3107 3109 3111 3113 3116 3116 3118 3118 3120 3121 3121 3120 3118 3117 3119 3120 3119 3119 3119 3117 3115 3112 3109 3108 3104 3100 3095 3091 3085 3081 3077 3072
3102 3104 3106 3108 3110 3112 3115 3116 3115 3115 3115 3113 3112 3113 3114 3114 3114 3114 3112 3109 3107 3105 3102 3099 3096 3091 3086 3081 3076 3072 3067 3063
3099 3101 3102 3103 3106 3107 3109 3111 3112 3113 3111 3110 3110 3110 3109 3109 3108 3106 3104 3101 3099 3096 3094 3091 3087 3081 3077 3073 3068 3064 3060 3056
3097 3098 3100 3102 3104 3104 3106 3108 3108 3108 3107 3106 3104 3104 3103 3102 3100 3098 3096 3094 3091 3088 3085 3082 3077 3073 3069 3065 3062 3059 3054 3049
3097 3098 3099 3100 3101 3101 3103 3104 3104 3103 3102 3100 3099 3097 3096 3094 3093 3091 3089 3086 3084 3081 3077 3073 3069 3065 3062 3058 3056 3051 3046 3042
3095 3095 3096 3096 3097 3097 3098 3099 3099 3097 3096 3095 3093 3091 3089 3087 3085 3083 3081 3079 3076 3072 3068 3065 3061 3055 3053 3051 3047 3042 3039 3035
3091 3092 3091 3091 3092 3092 3093 3093 3092 3090 3088 3086 3085 3083 3081 3079 3078 3076 3073 3070 3068 3064 3058 3054 3048 3045 3046 3042 3038 3033 3030 3027
3085 3085 3085 3085 3084 3085 3085 3084 3082 3080 3078 3077 3076 3075 3074 3072 3070 3068 3065 3062 3059 3053 3047 3042 3038 3041 3037 3033 3028 3025 3022 3019
3080 3081 3081 3080 3079 3078 3077 3076 3074 3072 3071 3069 3068 3068 3067 3065 3062 3059 3056 3051 3045 3039 3035 3032 3035 3032 3028 3024 3021 3018 3015 3011
3075 3075 3075 3074 3073 3072 3070 3069 3067 3065 3064 3062 3061 3060 3058 3056 3053 3047 3043 3038 3032 3028 3030 3029 3026 3024 3019 3016 3014 3010 3007 3003
Wind_Speed
13 15 17 17 16 16 15 13 11 10 8 7 6 3 2 3 5 7 9 10 11 12 13 14 15 19 24 29 31 33 34 33
13 16 16 15 13 12 12 10 7 6 5 3 3 5 7 7 8 9 10 11 12 12 14 17 19 23 26 28 31 33 33 35
11 10 11 10 9 9 9 10 10 6 6 7 8 9 11 11 12 11 11 12 13 15 18 20 22 25 28 28 32 32 29 35
7 5 5 5 3 3 6 8 9 9 8 11 11 14 13 13 13 13 13 15 16 19 21 23 24 27 31 34 33 37 37 39
10 8 4 4 5 7 11 11 13 13 12 15 15 17 17 15 17 17 16 19 21 22 23 27 29 33 37 41 40 39 40 43
15 11 11 9 9 9 13 14 14 17 15 16 19 22 20 20 23 21 18 23 24 25 27 31 37 41 42 45 41 44 37 42
16 15 15 16 15 19 21 23 15 19 19 16 19 23 24 26 24 24 21 25 27 27 35 39 42 48 43 40 39 43 43 40
23 19 18 15 16 18 23 23 11 15 20 21 23 21 23 26 26 27 25 30 30 34 37 44 45 48 49 41 46 44 44 44
23 19 18 18 18 21 21 21 17 17 20 23 25 22 20 24 25 27 30 34 37 37 41 43 43 47 45 46 43 44 43 42
19 16 14 14 17 18 19 19 20 22 24 22 20 15 19 23 24 25 28 28 32 35 39 42 42 45 43 44 45 45 41 42
8 10 12 11 14 14 19 20 21 22 17 14 14 14 16 17 19 21 23 26 28 33 36 41 43 45 45 47 47 42 42 42
8 7 9 12 15 12 9 10 9 12 13 14 14 15 16 19 21 22 24 27 29 33 36 39 41 43 44 44 39 39 40 41
10 10 9 8 8 8 6 10 13 17 15 17 18 18 20 21 22 25 27 28 31 34 36 39 42 45 45 42 39 39 40 35
5 6 6 9 11 12 16 18 21 25 26 25 25 24 24 24 25 26 27 31 34 36 41 43 46 50 49 39 38 40 33 30
11 10 10 13 14 19 21 23 25 29 29 27 27 25 25 28 28 29 32 34 39 42 48 48 52 56 45 39 40 34 28 31
14 15 17 19 18 21 24 25 28 29 29 30 26 25 29 31 31 32 36 39 42 47 48 55 60 52 38 40 37 28 30 34
20 19 21 21 23 23 24 25 29 31 31 28 26 28 32 33 34 36 40 40 45 51 59 61 56 39 40 39 29 29 33 36
19 19 18 19 22 24 25 26 26 27 29 30 30 31 33 35 38 41 42 47 54 52 53 56 40 39 42 30 28 32 35 35
16 17 19 23 25 26 28 29 29 28 26 25 28 30 34 38 43 47 50 52 60 56 45 40 39 41 33 28 31 34 35 34
Wind_Direction
131 142 145 149 152 152 154 161 162 159 148 163 173 172 220 252 271 291 302 300 304 300 295 296 301 305 303 305 311 315 314 313
144 156 161 168 171 163 165 172 182 183 167 164 195 232 249 263 269 281 291 289 289 287 290 292 290 291 299 304 309 314 313 312
159 162 168 169 176 183 195 199 206 215 221 231 242 248 262 276 275 277 279 283 284 285 291 290 284 286 292 302 309 307 313 312
142 161 182 206 203 230 220 229 237 247 262 263 271 279 280 277 293 277 274 274 270 274 277 279 283 286 289 293 299 313 299 314
193 190 153 155 180 220 234 240 248 245 252 269 282 292 275 273 274 255 261 268 263 268 277 281 285 287 286 290 290 307 302 311
221 219 217 229 244 255 249 241 251 253 260 273 282 285 268 267 266 256 263 267 265 270 280 284 281 287 288 298 298 313 302 318
241 243 242 238 241 250 255 235 222 243 256 266 292 280 263 270 264 257 261 264 268 274 283 283 286 293 303 300 306 313 311 314
251 250 257 262 260 263 267 260 248 259 270 275 293 272 260 265 259 260 262 268 275 282 284 290 295 304 295 303 310 315 314 314
254 255 267 260 267 267 273 263 271 273 277 286 286 268 266 262 271 276 278 282 284 292 295 301 303 307 303 306 311 311 312 315
247 263 254 249 266 266 279 274 275 285 285 279 280 272 271 278 281 285 287 295 299 299 296 306 302 301 306 311 313 313 315 319
248 270 246 242 253 253 258 268 281 279 276 283 290 283 276 281 287 292 291 293 296 296 296 295 298 304 310 314 315 315 319 318
258 245 233 234 230 226 240 267 284 287 292 292 282 279 284 290 291 297 301 298 298 296 294 295 299 305 311 316 316 319 317 311
245 233 220 215 227 227 258 274 294 288 290 292 291 289 292 298 299 300 296 292 292 289 293 298 304 306 309 310 316 315 314 310
240 258 245 240 245 260 257 275 276 285 287 290 290 296 297 298 294 293 292 293 290 294 294 305 307 307 307 304 313 315 308 304
247 264 266 255 260 267 267 273 277 283 285 286 288 293 298 295 291 292 290 294 292 284 300 300 302 298 297 311 311 305 299 298
257 255 250 258 265 270 274 275 276 280 283 286 288 289 288 288 288 286 289 290 292 288 285 294 288 286 311 311 306 298 299 301
252 254 254 257 260 267 272 274 272 269 273 280 282 282 283 286 285 285 287 291 292 290 285 284 283 307 310 305 295 295 298 302
252 257 262 265 269 276 278 281 279 278 274 269 275 277 280 282 285 286 291 285 284 281 295 287 306 308 303 296 293 296 300 303
254 264 274 278 280 283 280 283 280 283 281 276 275 278 280 283 286 276 274 279 282 276 294 307 304 302 296 294 294 298 299 302